Content
SEND FEEDBACK

Daily
Averages
Monthly
Summary
United States of America

GIBSON CITY, ILLINOIS


Home > North America > United States > Illinois
Elevation: 230 meters     Latitude: 40 28N     Longitude: 088 23W

WEATHER
 
SELECT A DAY
Number of Records: 331,017;   Date Range: 9/6/01 - 12/18/14
 
SHARE

PRINT THIS DATA

[ ← Previous Day ]
WEATHER ALMANAC - 31 JANUARY, 2013
[ Next Day → ]
[ °F ]   °C
Weather ElementAverageHighLow
Temperature-6.8 °C-4 °C (12:35 am)-13.2 °C (11:55 pm)
Dewpoint-10.9 °C-5.7 °C (6:55 am)-19 °C (11:55 pm)
Humidity73.2 %91 % (6:55 am)63 % (11:55 pm)
Barometer1014.6 hPa1024 hPa (11:55 pm)1007.8 hPa (12:35 am)
Wind Speed34.6 km/h50.1 km/h (1:35 am)
Wind Gust61.2 km/h (3:15 am)
Weather ElementAverage
Visibility14.2 km
Wind DirectionWNW (276.1 °)

Weather ElementTotal
Precipitation---
Heating Degree Days26.9 (Base 18.3)
Averaged from 71 records on 31 January, 2013
WEATHER CONDITIONS BREAKOUT
WIND DIRECTION BREAKOUT
WEATHER BY HOUR - 31 JANUARY, 2013
[ °F ]   °C
Local TimeTemperatureDewpointHumidityBarometerVisibilityWind DirectionWind SpeedGust SpeedPrecipitationEventsConditions
12:35 AM-4 °C-7.8 °C75 %1007.8 hPa16.1 kmWest (260°)44.4 km/h57.5 km/hOvercast
12:55 AM-4.7 °C-8.8 °C73 %1008.1 hPa11.3 kmWest (270°)38.9 km/h57.5 km/hSnowLight Snow
1:15 AM-4.9 °C-8.6 °C76 %1008.1 hPa11.3 kmWest (270°)46.3 km/h57.5 km/hSnowLight Snow
1:35 AM-5.1 °C-9.3 °C73 %1008.5 hPa16.1 kmWest (270°)50.1 km/h57.5 km/hOvercast
1:55 AM-5.5 °C-9.3 °C75 %1008.8 hPa16.1 kmWest (280°)40.7 km/h51.8 km/hSnowLight Snow
2:15 AM-5.4 °C-8.8 °C77 %1009.1 hPa16.1 kmWest (270°)33.3 km/h44.4 km/hSnowLight Snow
2:35 AM-5.8 °C-9.5 °C76 %1009.5 hPa16.1 kmWest (270°)38.9 km/h55.5 km/hMostly Cloudy
2:55 AM-6 °C-9.6 °C76 %1009.5 hPa16.1 kmWest (270°)42.6 km/h48.1 km/hMostly Cloudy
3:15 AM-5.8 °C-9.9 °C73 %1009.8 hPa16.1 kmWest (280°)38.9 km/h61.2 km/hOvercast
3:35 AM-5.6 °C-9.1 °C77 %1009.5 hPa16.1 kmWest (270°)38.9 km/h50.1 km/hOvercast
3:55 AM-5.3 °C-8.6 °C78 %1009.8 hPa16.1 kmWest (270°)33.3 km/h44.4 km/hOvercast
4:15 AM-5 °C-8.2 °C79 %1009.8 hPa16.1 kmWest (270°)35.2 km/h42.6 km/hOvercast
4:35 AM-4.6 °C-7.8 °C79 %1009.8 hPa16.1 kmWest (270°)29.6 km/h44.4 km/hOvercast
4:55 AM-4.5 °C-7.7 °C79 %1009.8 hPa16.1 kmWest (270°)33.3 km/h40.7 km/hOvercast
5:15 AM-4.5 °C-7.3 °C81 %1009.8 hPa8 kmWest (270°)27.8 km/h38.9 km/hSnowLight Snow
5:35 AM-4.5 °C-7.1 °C82 %1009.8 hPa11.3 kmWest (260°)25.9 km/h33.3 km/hSnowLight Snow
5:55 AM-4.3 °C-7 °C82 %1009.8 hPa16.1 kmWSW (250°)16.7 km/hOvercast
6:15 AM-4.5 °C-6.1 °C89 %1010.2 hPa2.4 kmWSW (250°)14.8 km/hSnowLight Snow
6:35 AM-4.5 °C-6 °C89 %1010.2 hPa2.4 kmWest (260°)18.5 km/hSnowLight Snow
6:55 AM-4.5 °C-5.7 °C91 %1010.5 hPa6.4 kmWest (270°)22.2 km/hSnowLight Snow
7:15 AM-4.3 °C-6.4 °C85 %1010.8 hPa16.1 kmWest (270°)27.8 km/h33.3 km/hSnowLight Snow
7:35 AM-4.3 °C-6.7 °C84 %1011.2 hPa16.1 kmWest (270°)25.9 km/hOvercast
7:55 AM-4.2 °C-6.7 °C83 %1011.5 hPa16.1 kmWest (270°)27.8 km/h37 km/hOvercast
8:15 AM-4.4 °C-7.4 °C80 %1011.9 hPa11.3 kmWest (270°)25.9 km/h37 km/hOvercast
8:35 AM-4 °C-7.2 °C79 %1011.9 hPa16.1 kmWNW (290°)29.6 km/h35.2 km/hMostly Cloudy
8:55 AM-5 °C-8.7 °C76 %1012.5 hPa16.1 kmWest (270°)31.5 km/h40.7 km/hScattered Clouds
9:15 AM-5 °C-9.3 °C72 %1012.9 hPa8 kmWest (280°)38.9 km/h48.1 km/hHaze
9:35 AM-5.2 °C-9.6 °C72 %1013.2 hPa11.3 kmWest (270°)38.9 km/h50.1 km/hScattered Clouds
9:55 AM-5.1 °C-9.9 °C69 %1013.2 hPa16.1 kmWest (270°)35.2 km/h46.3 km/hClear
10:15 AM-4.8 °C-9.9 °C68 %1013.5 hPa16.1 kmWest (270°)35.2 km/h44.4 km/hClear
10:35 AM-4.9 °C-9.8 °C69 %1013.9 hPa16.1 kmWest (270°)33.3 km/h44.4 km/hClear
10:55 AM-4.4 °C-9 °C71 %1013.9 hPa16.1 kmWest (270°)38.9 km/h46.3 km/hMostly Cloudy
11:15 AM-4.3 °C-8.5 °C73 %1013.9 hPa16.1 kmWest (270°)25.9 km/h44.4 km/hOvercast
11:35 AM-4.9 °C-8.8 °C75 %1014.2 hPa16.1 kmWest (280°)27.8 km/h38.9 km/hOvercast
11:55 AM-4.6 °C-9 °C72 %1013.9 hPa16.1 kmWest (260°)37 km/h48.1 km/hOvercast
12:15 PM-4.6 °C-9.5 °C69 %1013.9 hPa16.1 kmWest (270°)29.6 km/h46.3 km/hOvercast
12:35 PM-4.5 °C-8.7 °C73 %1013.9 hPa16.1 kmWest (270°)37 km/h44.4 km/hSnowLight Snow
12:55 PM-4.5 °C-8.9 °C72 %1013.9 hPa16.1 kmWest (270°)38.9 km/h46.3 km/hSnowLight Snow
1:15 PM-4.4 °C-9.4 °C69 %1013.9 hPa16.1 kmWest (270°)35.2 km/h46.3 km/hMostly Cloudy
1:35 PM-4.1 °C-9.3 °C68 %1013.9 hPa16.1 kmWest (260°)31.5 km/h48.1 km/hMostly Cloudy
1:55 PM-4.4 °C-9.7 °C67 %1013.9 hPa16.1 kmWest (280°)35.2 km/h44.4 km/hOvercast
2:15 PM-5.4 °C-10.7 °C67 %1013.9 hPa16.1 kmWNW (290°)38.9 km/h48.1 km/hOvercast
2:35 PM-5.5 °C-11 °C66 %1014.2 hPa16.1 kmWest (270°)33.3 km/h42.6 km/hMostly Cloudy
2:55 PM-5.5 °C-10.5 °C68 %1014.6 hPa16.1 kmWest (270°)33.3 km/h42.6 km/hOvercast
3:15 PM-5.9 °C-11.4 °C66 %1014.9 hPa16.1 kmWest (270°)33.3 km/hOvercast
3:35 PM-6.2 °C-11.8 °C65 %1015.6 hPa16.1 kmWest (280°)37 km/h46.3 km/hOvercast
3:55 PM-6.5 °C-11.8 °C67 %1015.6 hPa16.1 kmWest (270°)37 km/h46.3 km/hOvercast
4:15 PM-7.2 °C-11.3 °C73 %1016.3 hPa6.4 kmWNW (290°)29.6 km/h40.7 km/hSnowLight Snow
4:35 PM-7.6 °C-11.7 °C73 %1016.6 hPa8 kmWNW (290°)38.9 km/h44.4 km/hSnowLight Snow
4:55 PM-8.1 °C-12.4 °C72 %1016.9 hPa11.3 kmWest (280°)35.2 km/h44.4 km/hSnowLight Snow
5:15 PM-8.3 °C-13.9 °C65 %1017.3 hPa16.1 kmWNW (290°)31.5 km/h48.1 km/hOvercast
5:35 PM-8.6 °C-14 °C66 %1017.6 hPa16.1 kmWNW (290°)35.2 km/h48.1 km/hOvercast
5:55 PM-8.9 °C-14.3 °C66 %1017.9 hPa16.1 kmWNW (290°)38.9 km/h50.1 km/hMostly Cloudy
6:15 PM-9.2 °C-13.3 °C73 %1018.3 hPa16.1 kmWest (280°)37 km/h46.3 km/hScattered Clouds
6:35 PM-9.6 °C-14.6 °C68 %1018.6 hPa16.1 kmWest (280°)31.5 km/h48.1 km/hScattered Clouds
6:55 PM-9.9 °C-14.5 °C70 %1019 hPa16.1 kmWNW (290°)38.9 km/h50.1 km/hMostly Cloudy
7:15 PM-10.2 °C-15.6 °C65 %1019.3 hPa16.1 kmWNW (300°)35.2 km/h53.8 km/hScattered Clouds
7:35 PM-10.1 °C-14.4 °C71 %1019.6 hPa11.3 kmWest (280°)42.6 km/h51.8 km/hMostly Cloudy
7:55 PM-10.6 °C-15.1 °C70 %1020 hPa16.1 kmWNW (290°)42.6 km/h53.8 km/hOvercast
8:15 PM-10.8 °C-15.1 °C71 %1020.7 hPa16.1 kmWNW (290°)38.9 km/h50.1 km/hOvercast
8:35 PM-11.2 °C-15.5 °C71 %1021 hPa11.3 kmWest (280°)38.9 km/h48.1 km/hOvercast
8:55 PM-11.6 °C-14.9 °C77 %1021.3 hPa4.8 kmWest (280°)38.9 km/h53.8 km/hSnowLight Snow
9:15 PM-12 °C-16.4 °C70 %1021.7 hPa16.1 kmWNW (290°)37 km/hScattered Clouds
9:35 PM-12 °C-17.1 °C66 %1022 hPa16.1 kmWest (280°)40.7 km/h50.1 km/hScattered Clouds
9:55 PM-12.2 °C-17 °C68 %1022 hPa16.1 kmWNW (290°)37 km/h48.1 km/hMostly Cloudy
10:15 PM-12.2 °C-16.7 °C70 %1022.4 hPa16.1 kmWNW (290°)35.2 km/h46.3 km/hScattered Clouds
10:35 PM-12.1 °C-16.5 °C70 %1022.7 hPa16.1 kmWest (280°)33.3 km/h42.6 km/hMostly Cloudy
10:55 PM-12.3 °C-16 °C74 %1023 hPa6.4 kmWest (280°)40.7 km/h48.1 km/hHaze
11:15 PM-12.8 °C-17.9 °C66 %1023 hPa16.1 kmWNW (300°)33.3 km/h50.1 km/hScattered Clouds
11:35 PM-13 °C-16.8 °C74 %1023.4 hPa11.3 kmWNW (300°)35.2 km/h48.1 km/hScattered Clouds
11:55 PM-13.2 °C-19 °C63 %1024 hPa16.1 kmWNW (290°)37 km/h55.5 km/hScattered Clouds
Hourly data recorded from KTIP, located 0 kilometers away from Gibson City, Illinois







STORIES FROM OUR PARTNERS